Regional Weather Roundup
Issued by NWS

Home | Current Version | Previous Version | Graphics & Text | Print | Product List | Glossary On
Versions: 1 2 3 4 5 6 7 8 9 10 11 12 13 14 15 16 17 18 19 20 21 22 23 24 25 26 27 28 29 30 31 32 33 34 35 36 37 38 39 40 41 42 43 44 45 46 47 48 49 50
000
ASUS43 KBIS 230810
RWRND

NORTH DAKOTA REGIONAL WEATHER ROUNDUP
NATIONAL WEATHER SERVICE BISMARCK ND
300 AM CDT SUN APR 23 2017

NOTE: "FAIR" INDICATES FEW OR NO CLOUDS BELOW 12,000 FEET WITH NO
SIGNIFICANT WEATHER AND/OR OBSTRUCTIONS TO VISIBILITY.


NDZ001>003-009>011-017-230900-
NORTHWEST NORTH DAKOTA

CITY           SKY/WX    TMP DP  RH WIND       PRES   REMARKS
WILLISTON      CLOUDY    37  30  75 E13       30.11F
MINOT          FLURRIES  32  25  75 NE15      30.18F
MINOT AFB      CLOUDY    31  26  83 E22G29    30.17F WCI  18
$$

NDZ018>021-031>035-040>046-230900-
SOUTHWEST NORTH DAKOTA

CITY           SKY/WX    TMP DP  RH WIND       PRES   REMARKS
BISMARCK       CLOUDY    37  32  82 E18G24    30.13S
DICKINSON      CLOUDY    34  30  85 E20G26    30.02F
GARRISON         N/A     32  31  96 E16       30.14S
HETTINGER ARPT CLOUDY    38  37  97 E21G29    29.98F
$$

NDZ004>008-012>016-024-026-027-054-230900-
NORTHEAST NORTH DAKOTA

CITY           SKY/WX    TMP DP  RH WIND       PRES   REMARKS
GRAND FORKS    CLOUDY    33  22  63 N18       30.24S
GRND FRKS AFB  CLOUDY    31  19  61 NE17G23   30.25S WCI  19
DEVILS LAKE    CLOUDY    29  18  63 NE18      30.22F WCI  16
$$

NDZ022-023-025-028>030-036>039-047>053-230900-
SOUTHEAST NORTH DAKOTA

CITY           SKY/WX    TMP DP  RH WIND       PRES   REMARKS
FARGO          CLOUDY    35  32  88 N15       30.17S
JAMESTOWN      CLOUDY    32  27  81 NE15      30.17S
$$




USA.gov is the U.S. government's official web portal to all federal, state and local government web resources and services.